Location: *
(46.1006°N, 1.8394°E)
Time: 05:07:15
(UTC+00:00)

Cosmos 1140 Rocket - Pass Details

Date: 20 September 2019
Orbit: 745 x 767 km, 74.1° (Epoch: 19 October)

Event Time Altitude Azimuth Distance (km) Brightness Sun altitude
Rises 18:57:30 0° 343° (NNW) 3,223 7.2 -11.6°
Reaches altitude 10° 19:00:01 10° 350° (N) 2,290 6.3 -12.0°
Maximum altitude 19:04:56 42° 61° (ENE) 1,070 3.9 -12.8°
Enters shadow 19:08:26 18° 125° (SE) 1,792 4.8 -13.4°
